Location: The Saddle
(36.8333°N, 80.3417°W)
Time: 09:13:16
(UTC-05:00)

A-11 Canister half - Pass Details

Date: 18 December 2023
Orbit: 1526 x 1682 km, 47.3° (Epoch: 27 February)

Event Time Altitude Azimuth Distance (km) Brightness Sun altitude
Rises 22:36:55 0° 302° (WNW) 4,934 12.0 -64.4°
Reaches altitude 10° 22:40:11 10° 298° (WNW) 3,937 11.4 -65.0°
Enters shadow 22:40:36 12° 298° (WNW) 3,808 11.3 -65.1°
Maximum altitude 22:49:56 56° 224° (SW) 1,901 - -66.8°
Drops below altitude 10° 22:59:25 10° 149° (SSE) 3,829 - -68.4°
Sets 23:02:33 0° 145° (SE) 4,791 - -68.9°
